Previsão horária em Alkino

Hoje, 14 Junho, Segunda-feira

Tempo Temperatura Precipitação Vento Pressão Humidade
00:00 +16°C° 0 mm 2 m/s 745 mmHg 87%
01:00 +16°C° 0.1 mm 2 m/s 745 mmHg 88%
02:00 +16°C° 0.1 mm 2 m/s 745 mmHg 90%
03:00 +16°C° 0 mm 2 m/s 745 mmHg 90%
04:00 +17°C° 0 mm 2 m/s 746 mmHg 89%
05:00 +18°C° 0 mm 2 m/s 746 mmHg 88%
06:00 +19°C° 0 mm 2 m/s 746 mmHg 86%
07:00 +20°C° 0 mm 2 m/s 746 mmHg 81%
08:00 +23°C° 0 mm 2 m/s 746 mmHg 76%
09:00 +24°C° 0 mm 2 m/s 746 mmHg 71%
10:00 +25°C° 0 mm 2 m/s 746 mmHg 68%
11:00 +26°C° 0 mm 2 m/s 746 mmHg 65%
12:00 +27°C° 0 mm 2 m/s 746 mmHg 61%
13:00 +27°C° 0.1 mm 2 m/s 746 mmHg 61%
14:00 +27°C° 0.1 mm 2 m/s 746 mmHg 60%
15:00 +27°C° 0 mm 2 m/s 746 mmHg 60%
16:00 +27°C° 0.1 mm 2 m/s 746 mmHg 65%
17:00 +26°C° 0.1 mm 1 m/s 745 mmHg 69%
18:00 +26°C° 0.1 mm 1 m/s 745 mmHg 74%
19:00 +24°C° 0.2 mm 2 m/s 745 mmHg 77%
20:00 +21°C° 0.2 mm 2 m/s 745 mmHg 81%
21:00 +19°C° 0.2 mm 2 m/s 745 mmHg 85%
22:00 +19°C° 0.2 mm 2 m/s 745 mmHg 87%
23:00 +18°C° 0.2 mm 2 m/s 745 mmHg 88%

Amanhã, 15 Junho, Terça-feira

Tempo Temperatura Precipitação Vento Pressão Humidade
00:00 +18°C° 0.2 mm 1 m/s 745 mmHg 90%
01:00 +18°C° 0.1 mm 1 m/s 745 mmHg 90%
02:00 +18°C° 0.1 mm 1 m/s 745 mmHg 91%
03:00 +18°C° 0.1 mm 1 m/s 745 mmHg 91%
04:00 +19°C° 0.1 mm 1 m/s 745 mmHg 89%
05:00 +20°C° 0.1 mm 1 m/s 746 mmHg 87%
06:00 +21°C° 0.1 mm 1 m/s 746 mmHg 86%
07:00 +22°C° 0.1 mm 1 m/s 746 mmHg 82%
08:00 +23°C° 0.1 mm 1 m/s 746 mmHg 79%
09:00 +24°C° 0.1 mm 1 m/s 746 mmHg 75%
10:00 +23°C° 0.6 mm 1 m/s 746 mmHg 77%
11:00 +23°C° 0.6 mm 2 m/s 746 mmHg 80%
12:00 +21°C° 0.6 mm 2 m/s 746 mmHg 82%
13:00 +23°C° 0 mm 2 m/s 746 mmHg 76%
14:00 +24°C° 0 mm 2 m/s 746 mmHg 71%
15:00 +25°C° 0 mm 2 m/s 746 mmHg 65%
16:00 +25°C° 0 mm 2 m/s 745 mmHg 68%
17:00 +25°C° 0 mm 1 m/s 745 mmHg 72%
18:00 +25°C° 0 mm 1 m/s 745 mmHg 75%
19:00 +23°C° 0 mm 1 m/s 745 mmHg 79%
20:00 +22°C° 0 mm 1 m/s 745 mmHg 82%
21:00 +20°C° 0 mm 1 m/s 745 mmHg 86%
22:00 +20°C° 0 mm 1 m/s 745 mmHg 86%
23:00 +19°C° 0 mm 1 m/s 744 mmHg 87%

Depois de amanhã, 16 Junho, Quarta-feira

Tempo Temperatura Precipitação Vento Pressão Humidade
00:00 +19°C° 0 mm 1 m/s 744 mmHg 88%
01:00 +19°C° 0 mm 1 m/s 744 mmHg 88%
02:00 +17°C° 0 mm 2 m/s 744 mmHg 89%
03:00 +17°C° 0 mm 2 m/s 744 mmHg 89%
04:00 +19°C° 0 mm 2 m/s 744 mmHg 87%
05:00 +20°C° 0 mm 2 m/s 744 mmHg 84%
06:00 +21°C° 0 mm 2 m/s 744 mmHg 81%
07:00 +22°C° 0 mm 3 m/s 743 mmHg 77%
08:00 +25°C° 0 mm 3 m/s 743 mmHg 73%
09:00 +26°C° 0 mm 4 m/s 742 mmHg 68%
10:00 +27°C° 0 mm 4 m/s 742 mmHg 66%
11:00 +28°C° 0 mm 4 m/s 742 mmHg 64%
12:00 +28°C° 0 mm 5 m/s 742 mmHg 62%
13:00 +28°C° 0 mm 4 m/s 741 mmHg 63%
14:00 +28°C° 0 mm 4 m/s 741 mmHg 63%
15:00 +28°C° 0 mm 4 m/s 741 mmHg 64%
16:00 +28°C° 0.2 mm 4 m/s 740 mmHg 68%
17:00 +27°C° 0.2 mm 3 m/s 740 mmHg 72%
18:00 +26°C° 0.2 mm 3 m/s 740 mmHg 76%
19:00 +24°C° 1.2 mm 3 m/s 740 mmHg 81%
20:00 +21°C° 1.2 mm 3 m/s 740 mmHg 86%
21:00 +19°C° 1.2 mm 3 m/s 740 mmHg 91%
22:00 +19°C° 1.3 mm 4 m/s 740 mmHg 92%
23:00 +18°C° 1.3 mm 4 m/s 741 mmHg 92%

17 Junho, Quinta-feira

Tempo Temperatura Precipitação Vento Pressão Humidade
00:00 +17°C° 1.3 mm 4 m/s 741 mmHg 93%
01:00 +17°C° 0 mm 4 m/s 741 mmHg 94%
02:00 +15°C° 0 mm 5 m/s 742 mmHg 95%
03:00 +15°C° 0 mm 5 m/s 742 mmHg 96%
04:00 +15°C° 0 mm 5 m/s 742 mmHg 93%
05:00 +15°C° 0 mm 6 m/s 743 mmHg 91%
06:00 +15°C° 0 mm 6 m/s 743 mmHg 88%
07:00 +16°C° 0 mm 6 m/s 744 mmHg 79%
08:00 +17°C° 0 mm 6 m/s 744 mmHg 70%
09:00 +18°C° 0 mm 7 m/s 744 mmHg 60%
10:00 +20°C° 0 mm 7 m/s 745 mmHg 57%
11:00 +20°C° 0 mm 7 m/s 745 mmHg 53%
12:00 +21°C° 0 mm 7 m/s 745 mmHg 50%
13:00 +21°C° 0 mm 7 m/s 745 mmHg 52%
14:00 +21°C° 0 mm 7 m/s 745 mmHg 54%
15:00 +21°C° 0 mm 7 m/s 746 mmHg 56%
16:00 +20°C° 0 mm 6 m/s 746 mmHg 58%
17:00 +19°C° 0 mm 6 m/s 746 mmHg 61%
18:00 +17°C° 0 mm 5 m/s 747 mmHg 63%
19:00 +17°C° 0 mm 4 m/s 747 mmHg 68%
20:00 +14°C° 0 mm 4 m/s 747 mmHg 73%
21:00 +13°C° 0 mm 3 m/s 748 mmHg 77%
22:00 +12°C° 0 mm 3 m/s 748 mmHg 78%
23:00 +11°C° 0 mm 3 m/s 748 mmHg 79%

18 Junho, Sexta-feira

Tempo Temperatura Precipitação Vento Pressão Humidade
00:00 +11°C° 0 mm 3 m/s 748 mmHg 80%
01:00 +10°C° 0 mm 3 m/s 749 mmHg 82%
02:00 +10°C° 0 mm 4 m/s 749 mmHg 83%
03:00 +10°C° 0 mm 4 m/s 749 mmHg 85%
04:00 +9°C° 0 mm 5 m/s 750 mmHg 83%
05:00 +10°C° 0 mm 5 m/s 750 mmHg 82%
06:00 +10°C° 0 mm 6 m/s 750 mmHg 80%
07:00 +13°C° 0 mm 6 m/s 751 mmHg 74%
08:00 +14°C° 0 mm 5 m/s 751 mmHg 68%
09:00 +16°C° 0 mm 5 m/s 751 mmHg 62%
10:00 +17°C° 0 mm 5 m/s 752 mmHg 58%
11:00 +18°C° 0 mm 4 m/s 752 mmHg 54%
12:00 +19°C° 0 mm 4 m/s 752 mmHg 50%
13:00 +20°C° 0 mm 4 m/s 752 mmHg 50%
14:00 +20°C° 0 mm 4 m/s 752 mmHg 51%
15:00 +20°C° 0 mm 4 m/s 752 mmHg 51%
16:00 +19°C° 0 mm 5 m/s 753 mmHg 56%
17:00 +17°C° 0 mm 5 m/s 753 mmHg 60%
18:00 +16°C° 0 mm 5 m/s 753 mmHg 65%
19:00 +15°C° 0 mm 4 m/s 753 mmHg 67%
20:00 +14°C° 0 mm 3 m/s 753 mmHg 69%
21:00 +14°C° 0 mm 2 m/s 753 mmHg 71%
22:00 +13°C° 0 mm 2 m/s 753 mmHg 72%
23:00 +13°C° 0 mm 2 m/s 753 mmHg 73%

19 Junho, Sábado

Tempo Temperatura Precipitação Vento Pressão Humidade
00:00 +13°C° 0 mm 2 m/s 753 mmHg 74%
01:00 +12°C° 0 mm 2 m/s 753 mmHg 75%
02:00 +11°C° 0 mm 3 m/s 754 mmHg 76%
03:00 +11°C° 0 mm 3 m/s 754 mmHg 77%
04:00 +12°C° 0 mm 3 m/s 754 mmHg 76%
05:00 +13°C° 0 mm 3 m/s 754 mmHg 75%
06:00 +16°C° 0 mm 3 m/s 754 mmHg 75%
07:00 +17°C° 0 mm 4 m/s 754 mmHg 71%
08:00 +19°C° 0 mm 5 m/s 753 mmHg 67%
09:00 +21°C° 0 mm 6 m/s 753 mmHg 62%
10:00 +22°C° 0 mm 6 m/s 753 mmHg 62%
11:00 +22°C° 0 mm 6 m/s 752 mmHg 62%
12:00 +23°C° 0 mm 7 m/s 752 mmHg 61%
13:00 +24°C° 0 mm 7 m/s 751 mmHg 62%
14:00 +24°C° 0 mm 6 m/s 751 mmHg 63%
15:00 +26°C° 0 mm 6 m/s 751 mmHg 64%
16:00 +24°C° 0.1 mm 6 m/s 750 mmHg 68%
17:00 +25°C° 0.1 mm 5 m/s 750 mmHg 71%
18:00 +23°C° 0.1 mm 5 m/s 750 mmHg 74%
19:00 +22°C° 0 mm 5 m/s 750 mmHg 78%
20:00 +21°C° 0 mm 5 m/s 750 mmHg 82%
21:00 +20°C° 0 mm 4 m/s 749 mmHg 86%
22:00 +20°C° 0 mm 4 m/s 749 mmHg 87%
23:00 +19°C° 0 mm 4 m/s 750 mmHg 88%
Mostrar mais